Hourly Weather Alkadar

Today, 27 February, Saturday

Time Temperature Precipitation Wind Pressure Humidity
00:00 +2°C° 0 mm 2 mps 709 mmHg 57%
01:00 +2°C° 0 mm 2 mps 708 mmHg 57%
02:00 +1°C° 0 mm 2 mps 708 mmHg 56%
03:00 +2°C° 0 mm 2 mps 708 mmHg 54%
04:00 +2°C° 0 mm 2 mps 708 mmHg 54%
05:00 +1°C° 0 mm 2 mps 708 mmHg 53%
06:00 +1°C° 0 mm 2 mps 708 mmHg 53%
07:00 +3°C° 0 mm 2 mps 708 mmHg 56%
08:00 +5°C° 0 mm 1 mps 708 mmHg 59%
09:00 +7°C° 0 mm 1 mps 708 mmHg 62%
10:00 +7°C° 0 mm 1 mps 707 mmHg 63%
11:00 +8°C° 0 mm 1 mps 707 mmHg 64%
12:00 +8°C° 0 mm 1 mps 707 mmHg 65%
13:00 +8°C° 0 mm 1 mps 706 mmHg 66%
14:00 +8°C° 0 mm 1 mps 705 mmHg 68%
15:00 +8°C° 0 mm 1 mps 705 mmHg 70%
16:00 +7°C° 0 mm 1 mps 705 mmHg 73%
17:00 +5°C° 0 mm 1 mps 704 mmHg 76%
18:00 +4°C° 0 mm 1 mps 704 mmHg 79%
19:00 +3°C° 0 mm 2 mps 704 mmHg 74%
20:00 +3°C° 0 mm 2 mps 704 mmHg 69%
21:00 +2°C° 0 mm 3 mps 704 mmHg 64%
22:00 +2°C° 0 mm 3 mps 704 mmHg 63%
23:00 +2°C° 0 mm 3 mps 704 mmHg 61%

Tomorrow, 28 February, Sunday

Time Temperature Precipitation Wind Pressure Humidity
00:00 +2°C° 0 mm 3 mps 704 mmHg 59%
01:00 +1°C° 0 mm 3 mps 704 mmHg 58%
02:00 +1°C° 0 mm 3 mps 703 mmHg 58%
03:00 +1°C° 0 mm 3 mps 703 mmHg 57%
04:00 +1°C° 0 mm 3 mps 703 mmHg 57%
05:00 +2°C° 0 mm 2 mps 703 mmHg 57%
06:00 +2°C° 0 mm 2 mps 703 mmHg 57%
07:00 +3°C° 0 mm 2 mps 703 mmHg 59%
08:00 +6°C° 0 mm 1 mps 704 mmHg 60%
09:00 +7°C° 0 mm 1 mps 704 mmHg 62%
10:00 +7°C° 0 mm 1 mps 703 mmHg 66%
11:00 +7°C° 0 mm 2 mps 703 mmHg 71%
12:00 +7°C° 0 mm 3 mps 703 mmHg 75%
13:00 +5°C° 0 mm 3 mps 703 mmHg 80%
14:00 +5°C° 0 mm 3 mps 703 mmHg 85%
15:00 +4°C° 0 mm 3 mps 702 mmHg 91%
16:00 +4°C° 0 mm 2 mps 703 mmHg 92%
17:00 +4°C° 0 mm 2 mps 703 mmHg 94%
18:00 +4°C° 0 mm 1 mps 703 mmHg 96%
19:00 +4°C° 0.1 mm 1 mps 703 mmHg 96%
20:00 +4°C° 0.1 mm 1 mps 704 mmHg 96%
21:00 +4°C° 0.1 mm 1 mps 704 mmHg 96%
22:00 +3°C° 0.2 mm 1 mps 704 mmHg 95%
23:00 +3°C° 0.2 mm 1 mps 704 mmHg 94%

Day after tomorrow, 1 March, Monday

Time Temperature Precipitation Wind Pressure Humidity
00:00 +3°C° 0.2 mm 1 mps 704 mmHg 93%
01:00 +3°C° 0.1 mm 1 mps 704 mmHg 92%
02:00 +3°C° 0.1 mm 1 mps 704 mmHg 91%
03:00 +2°C° 0.1 mm 1 mps 704 mmHg 91%
04:00 +2°C° 0.3 mm 1 mps 705 mmHg 92%
05:00 +2°C° 0.3 mm 1 mps 705 mmHg 93%
06:00 +2°C° 0.3 mm 1 mps 706 mmHg 94%
07:00 +2°C° 0.8 mm 1 mps 706 mmHg 95%
08:00 +2°C° 0.8 mm 2 mps 707 mmHg 96%
09:00 +2°C° 0.8 mm 2 mps 707 mmHg 97%
10:00 +2°C° 1.3 mm 2 mps 707 mmHg 98%
11:00 0°C° 1.3 mm 3 mps 708 mmHg 98%
12:00 0°C° 1.3 mm 3 mps 708 mmHg 98%
13:00 0°C° 0.9 mm 3 mps 708 mmHg 98%
14:00 +1°C° 0.9 mm 2 mps 708 mmHg 98%
15:00 +1°C° 0.9 mm 2 mps 708 mmHg 97%
16:00 -1°C° 0.4 mm 2 mps 709 mmHg 97%
17:00 +1°C° 0.4 mm 1 mps 709 mmHg 97%
18:00 +1°C° 0.4 mm 1 mps 710 mmHg 97%
19:00 +1°C° 0 mm 1 mps 710 mmHg 94%
20:00 0°C° 0 mm 1 mps 710 mmHg 90%
21:00 0°C° 0 mm 1 mps 711 mmHg 87%
22:00 0°C° 0 mm 1 mps 711 mmHg 86%
23:00 -1°C° 0 mm 1 mps 711 mmHg 84%

2 March, Tuesday

Time Temperature Precipitation Wind Pressure Humidity
00:00 -1°C° 0 mm 1 mps 711 mmHg 83%
01:00 -1°C° 0 mm 1 mps 711 mmHg 81%
02:00 -1°C° 0 mm 1 mps 711 mmHg 80%
03:00 -1°C° 0 mm 1 mps 711 mmHg 79%
04:00 -2°C° 0 mm 1 mps 711 mmHg 79%
05:00 -2°C° 0 mm 1 mps 711 mmHg 78%
06:00 -2°C° 0 mm 1 mps 711 mmHg 77%
07:00 -1°C° 0 mm 1 mps 711 mmHg 78%
08:00 0°C° 0 mm 1 mps 711 mmHg 78%
09:00 +1°C° 0 mm 1 mps 712 mmHg 79%
10:00 +2°C° 0 mm 1 mps 711 mmHg 81%
11:00 +1°C° 0 mm 2 mps 711 mmHg 83%
12:00 +2°C° 0 mm 2 mps 711 mmHg 85%
13:00 +2°C° 0 mm 2 mps 710 mmHg 86%
14:00 +2°C° 0 mm 2 mps 710 mmHg 86%
15:00 +2°C° 0 mm 2 mps 709 mmHg 87%
16:00 +1°C° 0 mm 2 mps 709 mmHg 88%
17:00 +2°C° 0 mm 1 mps 709 mmHg 90%
18:00 +1°C° 0 mm 1 mps 709 mmHg 92%
19:00 +1°C° 0 mm 1 mps 709 mmHg 89%
20:00 0°C° 0 mm 1 mps 709 mmHg 87%
21:00 0°C° 0 mm 1 mps 708 mmHg 85%
22:00 0°C° 0 mm 1 mps 708 mmHg 81%
23:00 0°C° 0 mm 1 mps 708 mmHg 77%

3 March, Wednesday

Time Temperature Precipitation Wind Pressure Humidity
00:00 -2°C° 0 mm 2 mps 707 mmHg 73%
01:00 -2°C° 0 mm 2 mps 707 mmHg 70%
02:00 -2°C° 0 mm 2 mps 707 mmHg 67%
03:00 -2°C° 0 mm 2 mps 706 mmHg 64%
04:00 -3°C° 0 mm 2 mps 706 mmHg 63%
05:00 -3°C° 0 mm 2 mps 706 mmHg 63%
06:00 -3°C° 0 mm 2 mps 706 mmHg 62%
07:00 -2°C° 0 mm 2 mps 706 mmHg 66%
08:00 -1°C° 0 mm 2 mps 707 mmHg 69%
09:00 +2°C° 0 mm 1 mps 707 mmHg 72%
10:00 +1°C° 0 mm 2 mps 707 mmHg 76%
11:00 +2°C° 0 mm 2 mps 707 mmHg 79%
12:00 +2°C° 0 mm 2 mps 706 mmHg 82%
13:00 +2°C° 0.1 mm 2 mps 706 mmHg 83%
14:00 +2°C° 0.1 mm 2 mps 706 mmHg 84%
15:00 +2°C° 0.1 mm 2 mps 706 mmHg 85%
16:00 +1°C° 0.1 mm 2 mps 706 mmHg 88%
17:00 +1°C° 0.1 mm 2 mps 706 mmHg 90%
18:00 +1°C° 0.1 mm 1 mps 706 mmHg 93%
19:00 -1°C° 0 mm 2 mps 706 mmHg 88%
20:00 -1°C° 0 mm 2 mps 707 mmHg 84%
21:00 -2°C° 0 mm 2 mps 707 mmHg 80%
22:00 -2°C° 0 mm 2 mps 707 mmHg 80%
23:00 -2°C° 0 mm 2 mps 707 mmHg 80%

4 March, Thursday

Time Temperature Precipitation Wind Pressure Humidity
00:00 -2°C° 0 mm 2 mps 707 mmHg 80%
01:00 -2°C° 0 mm 2 mps 707 mmHg 81%
02:00 -2°C° 0 mm 2 mps 708 mmHg 82%
03:00 0°C° 0 mm 1 mps 708 mmHg 83%
04:00 -1°C° 0.2 mm 1 mps 708 mmHg 83%
05:00 -1°C° 0.2 mm 1 mps 709 mmHg 84%
06:00 -1°C° 0.2 mm 1 mps 709 mmHg 84%
07:00 0°C° 0.1 mm 1 mps 709 mmHg 83%
08:00 0°C° 0.1 mm 1 mps 710 mmHg 82%
09:00 +1°C° 0.1 mm 1 mps 710 mmHg 81%
10:00 -1°C° 0.1 mm 2 mps 710 mmHg 85%
11:00 +1°C° 0.1 mm 2 mps 711 mmHg 89%
12:00 +1°C° 0.1 mm 2 mps 711 mmHg 92%
13:00 +1°C° 0.2 mm 2 mps 711 mmHg 91%
14:00 0°C° 0.2 mm 3 mps 711 mmHg 89%
15:00 0°C° 0.2 mm 3 mps 711 mmHg 87%
16:00 -1°C° 0.2 mm 2 mps 711 mmHg 88%
17:00 -2°C° 0.2 mm 2 mps 711 mmHg 88%
18:00 0°C° 0.2 mm 1 mps 712 mmHg 88%
19:00 -1°C° 0 mm 1 mps 712 mmHg 86%
20:00 -1°C° 0 mm 1 mps 712 mmHg 84%
21:00 -2°C° 0 mm 1 mps 713 mmHg 82%
22:00 -2°C° 0 mm 1 mps 712 mmHg 77%
23:00 -4°C° 0 mm 2 mps 712 mmHg 73%
Show more